When you browse on this site, cookies collect data to enhance your experience and personalize the content and advertising you see.
Visit our Privacy Policy to learn more. By continuing to use the site, you agree to this use of cookies and data.

Hourly Weather Lisse

Today, 27 September, Sunday

Time Temperature Precipitation Wind Pressure Humidity
00:00 +13°C° 0 mm 13 mps 749 mmHg 85%
01:00 +14°C° 0.9 mm 13 mps 748 mmHg 86%
02:00 +14°C° 0.9 mm 13 mps 748 mmHg 87%
03:00 +15°C° 0.9 mm 13 mps 747 mmHg 88%
04:00 +15°C° 0.3 mm 12 mps 748 mmHg 87%
05:00 +14°C° 0.3 mm 11 mps 748 mmHg 86%
06:00 +14°C° 0.3 mm 10 mps 749 mmHg 85%
07:00 +15°C° 0.1 mm 9 mps 750 mmHg 83%
08:00 +15°C° 0.1 mm 8 mps 750 mmHg 82%
09:00 +15°C° 0.1 mm 6 mps 751 mmHg 80%
10:00 +15°C° 0 mm 6 mps 752 mmHg 75%
11:00 +16°C° 0 mm 5 mps 752 mmHg 70%
12:00 +18°C° 0 mm 4 mps 753 mmHg 65%
13:00 +18°C° 0 mm 4 mps 753 mmHg 65%
14:00 +18°C° 0 mm 3 mps 753 mmHg 66%
15:00 +18°C° 0 mm 3 mps 753 mmHg 66%
16:00 +17°C° 0 mm 3 mps 754 mmHg 69%
17:00 +16°C° 0 mm 3 mps 754 mmHg 72%
18:00 +16°C° 0 mm 2 mps 754 mmHg 74%
19:00 +16°C° 0.1 mm 2 mps 754 mmHg 77%
20:00 +16°C° 0.1 mm 2 mps 755 mmHg 80%
21:00 +15°C° 0.1 mm 1 mps 755 mmHg 82%
22:00 +15°C° 0.6 mm 2 mps 755 mmHg 85%
23:00 +14°C° 0.6 mm 3 mps 755 mmHg 89%

Tomorrow, 28 September, Monday

Time Temperature Precipitation Wind Pressure Humidity
00:00 +15°C° 0.6 mm 4 mps 755 mmHg 92%
01:00 +15°C° 0.4 mm 4 mps 754 mmHg 93%
02:00 +16°C° 0.4 mm 5 mps 754 mmHg 95%
03:00 +16°C° 0.4 mm 6 mps 754 mmHg 96%
04:00 +16°C° 0.2 mm 6 mps 754 mmHg 95%
05:00 +16°C° 0.2 mm 5 mps 754 mmHg 95%
06:00 +16°C° 0.2 mm 5 mps 754 mmHg 94%
07:00 +17°C° 0.1 mm 5 mps 754 mmHg 92%
08:00 +17°C° 0.1 mm 5 mps 754 mmHg 90%
09:00 +17°C° 0.1 mm 5 mps 754 mmHg 88%
10:00 +18°C° 0 mm 4 mps 754 mmHg 87%
11:00 +19°C° 0 mm 4 mps 754 mmHg 86%
12:00 +19°C° 0 mm 4 mps 754 mmHg 85%
13:00 +19°C° 0.1 mm 4 mps 755 mmHg 85%
14:00 +19°C° 0.1 mm 4 mps 755 mmHg 85%
15:00 +19°C° 0.1 mm 5 mps 755 mmHg 84%
16:00 +18°C° 0.1 mm 4 mps 755 mmHg 86%
17:00 +18°C° 0.1 mm 4 mps 756 mmHg 87%
18:00 +17°C° 0.1 mm 4 mps 756 mmHg 89%
19:00 +17°C° 0.1 mm 3 mps 756 mmHg 89%
20:00 +17°C° 0.1 mm 3 mps 757 mmHg 89%
21:00 +17°C° 0.1 mm 3 mps 757 mmHg 89%
22:00 +17°C° 0.1 mm 3 mps 757 mmHg 90%
23:00 +17°C° 0.1 mm 3 mps 758 mmHg 90%

Day after tomorrow, 29 September, Tuesday

Time Temperature Precipitation Wind Pressure Humidity
00:00 +17°C° 0.1 mm 4 mps 758 mmHg 90%
01:00 +17°C° 0 mm 4 mps 758 mmHg 90%
02:00 +17°C° 0 mm 4 mps 758 mmHg 90%
03:00 +17°C° 0 mm 4 mps 758 mmHg 91%
04:00 +15°C° 0 mm 4 mps 758 mmHg 90%
05:00 +15°C° 0 mm 4 mps 759 mmHg 89%
06:00 +15°C° 0 mm 4 mps 759 mmHg 89%
07:00 +15°C° 0 mm 4 mps 759 mmHg 83%
08:00 +17°C° 0 mm 4 mps 759 mmHg 78%
09:00 +17°C° 0 mm 4 mps 759 mmHg 73%
10:00 +18°C° 0 mm 4 mps 760 mmHg 67%
11:00 +19°C° 0 mm 4 mps 760 mmHg 61%
12:00 +19°C° 0 mm 4 mps 760 mmHg 54%
13:00 +19°C° 0 mm 3 mps 760 mmHg 57%
14:00 +19°C° 0 mm 3 mps 760 mmHg 60%
15:00 +18°C° 0 mm 3 mps 760 mmHg 62%
16:00 +17°C° 0 mm 2 mps 760 mmHg 67%
17:00 +18°C° 0 mm 1 mps 760 mmHg 71%
18:00 +15°C° 0 mm 0 mps 760 mmHg 75%
19:00 +15°C° 0.4 mm 1 mps 760 mmHg 78%
20:00 +15°C° 0.4 mm 2 mps 760 mmHg 81%
21:00 +14°C° 0.4 mm 3 mps 760 mmHg 85%
22:00 +14°C° 0.2 mm 3 mps 760 mmHg 86%
23:00 +14°C° 0.2 mm 4 mps 759 mmHg 88%

30 September, Wednesday

Time Temperature Precipitation Wind Pressure Humidity
00:00 +14°C° 0.2 mm 4 mps 759 mmHg 90%
01:00 +13°C° 0 mm 4 mps 759 mmHg 89%
02:00 +13°C° 0 mm 4 mps 759 mmHg 87%
03:00 +12°C° 0 mm 5 mps 759 mmHg 86%
04:00 +12°C° 0 mm 5 mps 758 mmHg 87%
05:00 +12°C° 0 mm 4 mps 758 mmHg 88%
06:00 +12°C° 0 mm 4 mps 758 mmHg 88%
07:00 +13°C° 0 mm 4 mps 758 mmHg 83%
08:00 +14°C° 0 mm 4 mps 758 mmHg 78%
09:00 +15°C° 0 mm 4 mps 758 mmHg 73%
10:00 +17°C° 0 mm 4 mps 758 mmHg 69%
11:00 +18°C° 0 mm 4 mps 758 mmHg 64%
12:00 +19°C° 0 mm 5 mps 757 mmHg 60%
13:00 +19°C° 0 mm 5 mps 757 mmHg 64%
14:00 +19°C° 0 mm 4 mps 756 mmHg 69%
15:00 +19°C° 0 mm 4 mps 756 mmHg 73%
16:00 +17°C° 0.5 mm 5 mps 756 mmHg 77%
17:00 +16°C° 0.5 mm 5 mps 755 mmHg 81%
18:00 +16°C° 0.5 mm 5 mps 755 mmHg 85%
19:00 +16°C° 0.4 mm 6 mps 754 mmHg 86%
20:00 +15°C° 0.4 mm 6 mps 754 mmHg 86%
21:00 +15°C° 0.4 mm 6 mps 753 mmHg 87%
22:00 +15°C° 0.1 mm 7 mps 752 mmHg 86%
23:00 +15°C° 0.1 mm 7 mps 752 mmHg 86%

1 October, Thursday

Time Temperature Precipitation Wind Pressure Humidity
00:00 +15°C° 0.1 mm 7 mps 751 mmHg 85%
01:00 +15°C° 0.2 mm 7 mps 750 mmHg 86%
02:00 +14°C° 0.2 mm 7 mps 749 mmHg 87%
03:00 +14°C° 0.2 mm 7 mps 749 mmHg 87%
04:00 +14°C° 0.5 mm 7 mps 748 mmHg 88%
05:00 +13°C° 0.5 mm 8 mps 747 mmHg 88%
06:00 +13°C° 0.5 mm 8 mps 746 mmHg 88%
07:00 +13°C° 1 mm 8 mps 746 mmHg 89%
08:00 +13°C° 1 mm 9 mps 745 mmHg 89%
09:00 +13°C° 1 mm 9 mps 744 mmHg 89%
10:00 +13°C° 1.8 mm 9 mps 743 mmHg 89%
11:00 +13°C° 1.8 mm 8 mps 743 mmHg 89%
12:00 +12°C° 1.8 mm 8 mps 742 mmHg 90%
13:00 +13°C° 1 mm 8 mps 742 mmHg 87%
14:00 +13°C° 1 mm 9 mps 742 mmHg 84%
15:00 +15°C° 1 mm 9 mps 742 mmHg 82%
16:00 +13°C° 1.2 mm 9 mps 742 mmHg 80%
17:00 +12°C° 1.2 mm 9 mps 743 mmHg 79%
18:00 +11°C° 1.2 mm 9 mps 744 mmHg 78%
19:00 +11°C° 0.1 mm 8 mps 744 mmHg 74%
20:00 +10°C° 0.1 mm 8 mps 745 mmHg 71%
21:00 +10°C° 0.1 mm 8 mps 746 mmHg 68%
22:00 +10°C° 0.1 mm 7 mps 745 mmHg 71%
23:00 +9°C° 0.1 mm 7 mps 745 mmHg 75%

2 October, Friday

Time Temperature Precipitation Wind Pressure Humidity
00:00 +9°C° 0.1 mm 6 mps 745 mmHg 78%
01:00 +8°C° 0.1 mm 6 mps 745 mmHg 79%
02:00 +8°C° 0.1 mm 7 mps 744 mmHg 81%
03:00 +6°C° 0.1 mm 7 mps 744 mmHg 82%
04:00 +7°C° 0.5 mm 8 mps 743 mmHg 83%
05:00 +7°C° 0.5 mm 9 mps 743 mmHg 85%
06:00 +8°C° 0.5 mm 10 mps 742 mmHg 86%
07:00 +8°C° 0.3 mm 10 mps 742 mmHg 84%
08:00 +10°C° 0.3 mm 9 mps 742 mmHg 81%
09:00 +11°C° 0.3 mm 8 mps 742 mmHg 79%
10:00 +11°C° 0.3 mm 7 mps 742 mmHg 75%
11:00 +12°C° 0.3 mm 7 mps 742 mmHg 71%
12:00 +13°C° 0.3 mm 6 mps 742 mmHg 68%
13:00 +13°C° 0.2 mm 6 mps 742 mmHg 66%
14:00 +14°C° 0.2 mm 5 mps 742 mmHg 65%
15:00 +14°C° 0.2 mm 5 mps 742 mmHg 63%
16:00 +13°C° 0 mm 5 mps 741 mmHg 66%
17:00 +12°C° 0 mm 5 mps 741 mmHg 69%
18:00 +12°C° 0 mm 5 mps 741 mmHg 72%
19:00 +10°C° 0.6 mm 5 mps 740 mmHg 77%
20:00 +10°C° 0.6 mm 6 mps 739 mmHg 83%
21:00 +9°C° 0.6 mm 7 mps 739 mmHg 88%
22:00 +10°C° 2 mm 7 mps 738 mmHg 89%
23:00 +11°C° 2 mm 8 mps 737 mmHg 90%
Show more